This is the latest recevied weather packets stored in our database for station/object HP3ICC-23. If no packets are shown the sender has not sent any weather packets the latest 10 day(s).
| Time | Temp. | Humidity | Pressure | Rain* | Wind** | Luminosity | Snow |
|---|---|---|---|---|---|---|---|
| 1777748460 | 16.11° C | 90% | 1011 hPa | 0.76 mm | - | - | - |
| 1777747319 | 16.67° C | 90% | 1011 hPa | 3.3 mm | - | - | - |
| 1777747259 | 16.67° C | 90% | 1011 hPa | 3.3 mm | - | - | - |
| 1777746119 | 16.11° C | 82% | 1011 hPa | 0.51 mm | - | - | - |
| 1777746058 | 16.11° C | 82% | 1011 hPa | 0.51 mm | - | - | - |
| 1777744918 | 15.56° C | 85% | 1012 hPa | 0.51 mm | - | - | - |
| 1777744858 | 15.56° C | 85% | 1012 hPa | 0.51 mm | - | - | - |
| 1777743717 | 15.56° C | 85% | 1012 hPa | 0.51 mm | - | - | - |
| 1777743657 | 15.56° C | 85% | 1012 hPa | 0.51 mm | - | - | - |
| 1777742517 | 16.11° C | 81% | 1012 hPa | 0.51 mm | - | - | - |
| 1777742457 | 16.11° C | 81% | 1012 hPa | 0.51 mm | - | - | - |
| 1777741317 | 15.56° C | 84% | 1013 hPa | 0.51 mm | - | - | - |
| 1777741256 | 15.56° C | 84% | 1013 hPa | 0.51 mm | - | - | - |
| 1777740116 | 15.56° C | 83% | 1013 hPa | 0.51 mm | - | - | - |
| 1777740056 | 15.56° C | 83% | 1013 hPa | 0.51 mm | - | - | - |
| 1777738916 | 16.67° C | 80% | 1012 hPa | 0.25 mm | - | - | - |
| 1777738855 | 16.67° C | 80% | 1012 hPa | 0.25 mm | - | - | - |
| 1777737715 | 16.11° C | 80% | 1013 hPa | 0.25 mm | - | - | - |
| 1777737655 | 16.11° C | 80% | 1013 hPa | 0.25 mm | - | - | - |
| 1777736515 | 16.11° C | 81% | 1013 hPa | 0.25 mm | - | - | - |
| 1777736455 | 16.11° C | 81% | 1013 hPa | 0.25 mm | - | - | - |
| 1777735314 | 16.67° C | 79% | 1012 hPa | 0 mm | - | - | - |
| 1777735254 | 16.67° C | 79% | 1012 hPa | 0 mm | - | - | - |
| 1777734113 | 16.11° C | 79% | 1013 hPa | 0 mm | - | - | - |
| 1777734053 | 16.11° C | 79% | 1013 hPa | 0 mm | - | - | - |
* Rain latest hour (hover to see other rain measurements)
** Current wind speed in m/s (hover to see current wind gust speed)